Location: Kopernik Observatory
(42.0014°N, 76.0372°W)
Time: 22:59:27
(UTC-04:00)

Daily predictions for brighter satellites

Satellite Brightness Start Highest point End
(mag) Time Altitude Azimuth Time Altitude Azimuth Time Altitude Azimuth
ATLAS 5 CENTAUR R/B 2.9 20:52:47 10° NNW 20:58:32 48° NE 21:04:40 10° ESE
USA 234 4.4 21:00:41 10° E 21:04:57 18° ESE 21:09:11 10° SSE
Cosmos 921 Rocket 4.4 21:01:13 10° SW 21:05:19 44° WNW 21:09:32 10° N
Cosmos 2278 Rocket 4.0 21:03:35 10° ESE 21:05:28 12° E 21:07:22 10° ENE
Cosmos 1943 4.4 21:01:35 10° NW 21:06:53 43° WSW 21:12:08 10° S
PSLV R/B 3.3 21:06:41 10° W 21:10:07 71° S 21:13:37 10° ESE
Meteor 2-3 Rocket 3.8 21:07:25 10° S 21:13:04 90° E 21:18:42 10° N
Okean 1-7 3.7 21:09:01 10° NNW 21:13:14 57° W 21:17:27 10° S
Abrixas rocket 2.6 21:10:19 10° WNW 21:13:40 56° SSW 21:16:55 11° SE
CZ-4 DEB 3.5 21:13:40 10° S 21:16:46 54° W 21:19:54 10° NNW
Cosmos 1844 Rocket 3.4 21:13:44 10° SSE 21:18:43 33° ESE 21:23:43 10° NE
Cosmos 2056 Rocket 3.7 21:13:59 10° S 21:18:56 48° ESE 21:23:52 10° NNE
Cosmos 1674 Rocket 4.1 21:16:19 10° N 21:20:35 43° ENE 21:24:49 10° SSE
Cosmos 1371 Rocket 4.0 21:15:35 10° S 21:20:52 70° ESE 21:26:09 10° NNE
Cosmos 1825 4.0 21:19:37 11° ESE 21:21:39 16° E 21:23:57 10° NE
Cosmos 2082 Rocket 4.5 21:21:14 10° NNE 21:22:37 11° NE 21:24:01 10° NE
Cosmos 1340 Rocket 3.1 21:19:13 10° SSW 21:23:11 72° W 21:27:13 10° N
Cosmos 1939 Rocket 2.7 21:22:19 10° SSE 21:26:10 81° ENE 21:30:05 10° N
Cosmos 1461 3.6 21:21:33 10° SW 21:26:13 68° NW 21:30:45 10° NNE
Atlas Centaur 2 3.1 21:26:30 10° SSW 21:28:14 13° S 21:29:21 12° SSE
Cosmos 1782 3.1 21:25:20 10° N 21:29:16 50° E 21:32:54 12° SSE
Cosmos 2263 Rocket 3.6 21:28:05 10° SW 21:33:27 42° WNW 21:38:49 10° NNE
CENTAUR R/B 3.2 21:27:44 10° NW 21:35:37 82° WSW 21:43:29 12° SSE
MetOp-A 4.3 21:35:01 12° SSE 21:39:51 58° ENE 21:45:06 10° N
SL-27 R/B 2.7 21:36:25 10° N 21:40:03 57° ENE 21:42:35 18° SE
Cosmos 2154 Rocket 4.3 21:34:10 10° SSE 21:40:05 49° E 21:46:01 10° NNE
SL-8 R/B 3.6 21:37:25 10° SW 21:42:13 69° SSE 21:47:00 10° ENE
YAOGAN 6 3.1 21:40:07 18° SE 21:42:23 41° ENE 21:45:43 10° N
Cosmos 1408 3.7 21:40:58 18° SE 21:42:43 26° E 21:45:48 10° NNE
NOSS 2-2 (D) 3.4 21:40:08 10° SSW 21:44:13 79° ESE 21:48:59 10° NE
Coronas F rocket 2.6 21:42:51 10° SSW 21:45:23 41° W 21:47:55 10° N
Cosmos 2184 Rocket 4.2 21:41:08 10° SSW 21:47:17 76° W 21:53:30 10° N
deb Chang Zheng 4 3.8 21:43:17 10° N 21:47:42 76° WNW 21:52:06 10° SSW
COS B Rocket 3.5 21:43:39 10° N 21:47:53 56° E 21:50:52 16° SSE
Cosmos 1975 Rocket 4.2 21:44:26 10° NNE 21:48:09 27° ENE 21:50:14 19° ESE
Cosmos 1606 2.9 21:48:00 10° N 21:51:53 55° E 21:54:20 21° SSE
Okean 3 4.2 21:51:29 10° N 21:55:31 38° ENE 21:57:39 23° SE
Cosmos 1908 Rocket 3.6 21:53:54 12° S 21:57:52 63° E 22:02:15 10° NNE
Cosmos 1624 Rocket 4.4 21:53:13 10° SSW 21:58:27 68° WNW 22:03:46 10° NNE
NOSS 2-2 (C) 3.8 21:54:49 10° SW 21:58:55 75° NW 22:03:44 10° NNE
H-2A R/B 3.3 21:56:03 17° ESE 21:59:05 28° ENE 22:03:34 10° N
Envisat 3.5 21:54:27 10° S 21:59:27 57° W 22:04:28 10° NNW
USA 245 3.2 21:58:30 29° SE 21:59:40 47° ENE 22:03:06 10° N
Cosmos 1892 4.3 21:56:14 10° SW 21:59:47 36° WNW 22:03:22 10° N
Cosmos 1242 Rocket 4.0 21:59:19 10° NNE 22:02:19 23° ENE 22:03:15 21° E
Cosmos 1733 Rocket 4.1 21:59:46 10° SSW 22:04:02 48° WNW 22:08:19 10° N
Cosmos 1378 Rocket 3.5 22:01:21 10° N 22:05:39 65° E 22:08:06 25° SSE
MINOTAUR IV R/B 4.5 22:03:34 10° SSW 22:08:01 73° ESE 22:12:29 10° NNE
CZ-4 SHROUD 3.5 22:08:15 25° S 22:09:53 63° WSW 22:12:58 10° NNW
Intercosmos 25 3.8 22:12:07 31° SE 22:13:03 36° E 22:16:06 10° NNE
SPOT 1/Viking Rocket 3.5 22:10:27 22° SSE 22:13:52 79° ENE 22:19:07 10° N
ERBS 3.1 22:12:07 10° WNW 22:15:26 43° SW 22:16:36 31° S
Cosmos 407 Rocket 3.7 22:13:13 10° NNW 22:18:28 72° WSW 22:21:51 23° S
Cosmos 1238 Rocket 2.2 22:17:52 10° N 22:20:57 88° E 22:21:59 41° S
Cosmos 1452 Rocket 3.4 22:16:58 10° SSW 22:22:12 78° ESE 22:27:30 10° NNE
Landsat 7 4.2 22:21:41 30° SE 22:23:42 50° ENE 22:28:18 10° N
SPOT 5 3.9 22:19:21 12° S 22:23:54 48° W 22:29:04 10° NNW
COSMOS 2406 4.3 22:21:21 10° NW 22:26:40 39° WSW 22:30:59 15° SSW
H-2A R/B 4.0 22:24:50 10° SSW 22:28:24 24° W 22:31:56 10° NW
BREEZE-M TANK 4.1 22:16:19 10° W 22:32:14 67° N 22:35:56 11° ENE
Cosmos 2084 3.3 22:32:18 48° SE 22:32:34 49° ESE 22:36:17 10° NE
Cosmos 1140 Rocket 3.6 22:30:32 10° NNW 22:35:39 62° ENE 22:37:36 36° SE
Cosmos 2218 Rocket 4.3 22:32:39 29° SSE 22:35:46 52° E 22:41:57 10° NNE
Cosmos 1862 4.0 22:33:23 16° SSW 22:36:28 53° W 22:40:29 10° N
Nadezhda 3 Rocket 4.4 22:30:36 10° NNW 22:36:52 62° W 22:41:45 17° SSW
Terra 2.2 22:37:59 36° ESE 22:39:27 50° ENE 22:44:04 10° N
ARGOS 3.3 22:38:34 26° S 22:41:35 68° WSW 22:46:57 10° NNW
DMSP B5D2-2 4.4 22:36:45 10° NNE 22:41:47 46° E 22:43:08 38° SE
ATLAS 5 CENTAUR R/B 3.5 22:37:44 10° NW 22:43:12 35° WSW 22:46:55 19° SSW
DELTA 2 DEB (DPAF) 4.1 22:42:45 44° SSE 22:44:09 79° ENE 22:48:38 10° N
Okean 2 Rocket 3.1 22:42:45 31° SSW 22:44:51 81° W 22:49:18 10° N
USA 234 3.1 22:42:05 10° NE 22:48:38 75° SE 22:55:08 10° SW
Cosmos 2278 Rocket 2.1 22:43:31 13° SSW 22:48:39 89° ESE 22:54:22 10° NNE
CZ-4B R/B 4.0 22:45:46 10° N 22:50:40 55° WNW 22:54:54 13° SSW
Cosmos 1844 4.3 22:45:27 10° SW 22:51:08 60° WNW 22:56:53 10° NNE
Cosmos 1727 Rocket 4.2 22:47:16 10° N 22:53:19 54° ENE 22:55:27 37° SE
CZ-4C R/B 3.2 22:54:26 62° S 22:55:01 79° WSW 22:59:01 10° NNW
Cosmos 1833 Rocket 3.6 22:50:11 10° N 22:55:23 37° ENE 22:57:19 29° E
Cosmos 1850 Rocket 4.0 22:50:29 10° NNW 22:55:48 71° ENE 22:57:23 45° SE
Cosmos 1825 3.7 22:54:30 16° SW 22:56:58 33° WNW 23:00:28 10° N
Cosmos 1959 Rocket 4.3 22:58:48 34° S 23:01:42 83° E 23:07:50 10° N
Cosmos 1844 Rocket 4.2 22:57:19 10° SW 23:02:31 37° WNW 23:07:44 10° N
Timation 2 Rocket 3.8 22:57:16 10° NNW 23:03:18 86° ENE 23:05:20 44° SSE
Cosmos 1812 3.8 23:01:39 10° N 23:04:51 33° ENE 23:04:51 33° ENE
Cosmos 2082 Rocket 2.5 23:02:23 10° NNW 23:08:02 57° ENE 23:09:37 43° ESE
COSMOS 2487 3.7 23:10:20 10° NW 23:13:38 34° WSW 23:13:44 34° WSW
Cosmos 1741 Rocket 3.9 23:08:26 10° NNW 23:13:42 84° WSW 23:14:51 55° S
IGS 5A 3.5 23:17:59 65° SW 23:18:18 69° WSW 23:22:28 10° NNW
Cosmos 2297 3.6 23:16:56 43° SSW 23:18:53 81° ESE 23:24:40 10° NNE
DNEPR-1 R/B 3.6 23:14:36 10° NW 23:20:02 80° WSW 23:20:38 67° S
SL-8 Rocket 4.4 23:17:09 24° SSW 23:21:02 60° W 23:27:13 10° N
APEX 3.4 23:22:47 73° WSW 23:23:03 78° WNW 23:27:55 10° NNE
Cosmos 1339 Rocket 4.4 23:17:33 10° N 23:23:42 77° E 23:25:21 51° SSE
CARTOSAT-1 4.2 23:27:44 44° WSW 23:28:14 46° W 23:32:24 10° NNW
USA 229 DEB 3.8 23:26:12 10° NNW 23:33:19 73° NE 23:35:48 44° SE
Cosmos 1331 Rocket 4.4 23:33:49 45° E 23:33:49 45° E 23:38:17 10° NNE
USA 229 3.8 23:26:18 10° NNW 23:33:25 72° NE 23:35:55 43° SE
Cosmos 1110 Rocket 4.1 23:36:09 56° E 23:36:09 56° E 23:41:08 10° NNE
H-2A R/B 3.0 23:36:42 33° SW 23:38:18 40° W 23:43:20 10° NNW
Cosmos 1536 Rocket 3.9 23:34:25 10° NNW 23:38:50 58° W 23:39:02 57° WSW
Okean 1 3.6 23:35:13 10° N 23:38:43 63° NNE 23:38:43 63° NNE
Meteor 2-19 Rocket 4.4 23:37:43 47° SSW 23:39:36 81° W 23:45:46 10° N
Spot 2 4.4 23:40:48 10° N 23:45:11 59° WNW 23:45:30 57° W
Iridium 4 Rocket 4.1 23:43:20 10° N 23:49:01 52° E 23:49:35 50° ESE
Cosmos 1934 Rocket 4.4 23:52:21 43° E 23:52:44 44° E 23:58:24 10° NNE
